TimeCST,TemperatureF,Dew PointF,Humidity,Sea Level PressureIn,VisibilityMPH,Wind Direction,Wind SpeedMPH,Gust SpeedMPH,PrecipitationIn,Events,Conditions,WindDirDegrees,DateUTC
12:55 AM,31.3,29.7,94,30.40,10.0,Calm,Calm,-,N/A,,Clear,0,2012-11-29 06:55:00
1:55 AM,30.0,29.8,99,30.40,10.0,Calm,Calm,-,N/A,,Clear,0,2012-11-29 07:55:00
2:55 AM,28.6,28.0,98,30.39,10.0,ESE,4.6,-,N/A,,Clear,110,2012-11-29 08:55:00
3:55 AM,27.1,26.8,99,30.38,10.0,Calm,Calm,-,N/A,,Clear,0,2012-11-29 09:55:00
4:55 AM,28.6,28.2,99,30.39,10.0,Calm,Calm,-,N/A,,Clear,0,2012-11-29 10:55:00
5:55 AM,28.8,28.0,97,30.40,10.0,Calm,Calm,-,N/A,,Clear,0,2012-11-29 11:55:00
6:55 AM,28.8,28.4,99,30.42,9.0,Calm,Calm,-,N/A,,Clear,0,2012-11-29 12:55:00
7:55 AM,31.1,30.0,96,30.42,10.0,Calm,Calm,-,N/A,,Clear,0,2012-11-29 13:55:00
8:55 AM,39.2,31.8,75,30.41,9.0,SSE,4.6,-,N/A,,Clear,160,2012-11-29 14:55:00
9:55 AM,45.0,31.6,60,30.40,10.0,South,5.8,-,N/A,,Clear,180,2012-11-29 15:55:00
10:55 AM,52.0,30.2,43,30.37,10.0,SSW,9.2,-,N/A,,Clear,210,2012-11-29 16:55:00
11:55 AM,54.3,28.9,38,30.34,10.0,SSW,9.2,-,N/A,,Clear,200,2012-11-29 17:55:00
12:55 PM,57.0,28.2,33,30.31,10.0,SSW,6.9,-,N/A,,Clear,210,2012-11-29 18:55:00
1:55 PM,58.5,26.8,30,30.28,10.0,South,6.9,-,N/A,,Clear,180,2012-11-29 19:55:00
2:55 PM,57.7,27.3,31,30.28,10.0,SSW,6.9,-,N/A,,Clear,210,2012-11-29 20:55:00
3:55 PM,55.8,27.5,34,30.27,10.0,South,6.9,-,N/A,,Clear,190,2012-11-29 21:55:00
4:55 PM,52.9,27.1,37,30.27,10.0,South,4.6,-,N/A,,Clear,170,2012-11-29 22:55:00
5:55 PM,50.0,27.3,41,30.28,10.0,SSW,3.5,-,N/A,,Clear,210,2012-11-29 23:55:00
6:55 PM,46.6,27.5,47,30.28,10.0,SSW,4.6,-,N/A,,Clear,210,2012-11-30 00:55:00
7:55 PM,46.2,27.1,47,30.29,10.0,SSW,3.5,-,N/A,,Clear,200,2012-11-30 01:55:00
8:55 PM,43.9,28.2,54,30.28,9.0,Variable,3.5,-,N/A,,Clear,0,2012-11-30 02:55:00
9:55 PM,44.1,27.9,53,30.28,10.0,South,8.1,-,N/A,,Clear,170,2012-11-30 03:55:00
10:55 PM,43.0,27.7,55,30.28,10.0,South,3.5,-,N/A,,Clear,170,2012-11-30 04:55:00
11:55 PM,38.7,28.6,67,30.28,7.0,SE,3.5,-,N/A,,Clear,140,2012-11-30 05:55:00